Location: Beccas
(43.4309°N, 0.1528°E)
Time: 13:25:20
(UTC+00:00)

Transit 2A Rocket - Pass Details

Date: 03 June 2022
Orbit: 593 x 908 km, 66.7° (Epoch: 30 June)

Event Time Altitude Azimuth Distance (km) Brightness Sun altitude
Rises 21:35:38 0° 307° (NW) 2,862 9.4 -16.5°
Reaches altitude 10° 21:39:21 10° 275° (W) 1,931 7.6 -16.9°
Maximum altitude 21:40:49 12° 255° (WSW) 1,823 7.2 -17.1°
Drops below altitude 10° 21:42:17 10° 235° (SW) 1,923 7.1 -17.2°
Enters shadow 21:44:05 - 215° (SW) 2,283 7.2 -17.4°
